,,,PA_Meas_PMT16A,,PR_Meas_QMR101_102,,RH_Meas_QMH101,,SR_Meas_QMS101,,TA_Meas_QMH101,,GenWind,,GenWind,
date,time,status,PA,status,PR,status,RH,status,SR,status,TA,status,DirAvg,status,SpdAvg,
2010-12-24, 00:00:05,VALID,997.055,VALID,0,VALID,93.7909,VALID,0,VALID,22.4721,VALID,34,VALID,1.15195,
2010-12-24, 00:01:05,VALID,997.056,VALID,0,VALID,93.768,VALID,0,VALID,22.4916,VALID,38,VALID,1.05391,
2010-12-24, 00:02:05,VALID,997.075,VALID,0,VALID,93.7985,VALID,0,VALID,22.5111,VALID,41,VALID,0.851953,
2010-12-24, 00:03:05,VALID,997.083,VALID,0,VALID,93.7604,VALID,0,VALID,22.5306,VALID,41,VALID,0.917188,
2010-12-24, 00:04:05,VALID,997.083,VALID,0,VALID,93.768,VALID,0,VALID,22.5289,VALID,40,VALID,1.14414,
2010-12-24, 00:05:05,VALID,997.093,VALID,0,VALID,93.768,VALID,0,VALID,22.5679,VALID,40,VALID,0.658984,
2010-12-24, 00:06:05,VALID,997.078,VALID,0,VALID,93.768,VALID,0,VALID,22.5484,VALID,50,VALID,0.714063,
2010-12-24, 00:07:05,VALID,997.105,VALID,0,VALID,93.7451,VALID,0,VALID,22.6087,VALID,56,VALID,0.619531,
2010-12-24, 00:08:05,VALID,997.095,VALID,0,VALID,93.7451,VALID,0,VALID,22.6087,VALID,56,VALID,1.0082,
2010-12-24, 00:09:05,VALID,997.085,VALID,0,VALID,93.7375,VALID,0,VALID,22.6282,VALID,46,VALID,1.15937,
2010-12-24, 00:10:05,VALID,997.071,VALID,0,VALID,93.768,VALID,0,VALID,22.6672,VALID,40,VALID,1.19297,
2010-12-24, 00:11:05,VALID,997.042,VALID,0,VALID,93.7757,VALID,0,VALID,22.6477,VALID,35,VALID,0.937891,
2010-12-24, 00:12:05,VALID,997.062,VALID,0,VALID,93.7528,VALID,0,VALID,22.6477,VALID,36,VALID,0.984375,
2010-12-24, 00:13:05,VALID,997.079,VALID,0,VALID,93.7375,VALID,0,VALID,22.6672,VALID,21,VALID,0.929297,
2010-12-24, 00:14:05,VALID,997.109,VALID,0,VALID,93.7375,VALID,0,VALID,22.7079,VALID,15,VALID,0.953906,
2010-12-24, 00:15:05,VALID,997.152,VALID,0,VALID,93.7299,VALID,0,VALID,22.7062,VALID,9,VALID,1.45664,
2010-12-24, 00:16:05,VALID,997.218,VALID,1,VALID,93.7299,VALID,0,VALID,22.7257,VALID,3,VALID,2.28398,
2010-12-24, 00:17:05,VALID,997.277,VALID,1,VALID,93.7528,VALID,0,VALID,22.7257,VALID,5,VALID,2.42266,
2010-12-24, 00:18:05,VALID,997.445,VALID,0.5,VALID,93.7375,VALID,0,VALID,22.7062,VALID,3,VALID,3.84258,
2010-12-24, 00:19:05,VALID,997.509,VALID,0.5,VALID,93.7375,VALID,0,VALID,22.7257,VALID,353,VALID,3.73125,
2010-12-24, 00:20:05,VALID,997.548,VALID,1.5,VALID,93.7451,VALID,0.112286,VALID,22.7257,VALID,346,VALID,3.30469,
2010-12-24, 00:21:05,VALID,997.53,VALID,0.5,VALID,93.7757,VALID,0,VALID,22.5111,VALID,359,VALID,5.83594,
2010-12-24, 00:22:05,VALID,997.463,VALID,0.5,VALID,93.7909,VALID,0,VALID,22.2966,VALID,5,VALID,8.0043,
2010-12-24, 00:23:05,VALID,997.55,VALID,1,VALID,93.8138,VALID,0,VALID,22.1779,VALID,2,VALID,4.75547,
2010-12-24, 00:24:05,VALID,997.58,VALID,0.5,VALID,93.8443,VALID,0,VALID,22.1795,VALID,352,VALID,3.92578,
2010-12-24, 00:25:05,VALID,997.535,VALID,0,VALID,93.8367,VALID,0,VALID,22.1584,VALID,335,VALID,3.26602,
2010-12-24, 00:26:05,VALID,997.488,VALID,0.5,VALID,93.8291,VALID,0,VALID,22.1405,VALID,12,VALID,3.23008,
2010-12-24, 00:27:05,VALID,997.526,VALID,0,VALID,93.852,VALID,0,VALID,22.121,VALID,348,VALID,2.93086,
2010-12-24, 00:28:05,VALID,997.443,VALID,0.5,VALID,93.8291,VALID,0,VALID,22.121,VALID,7,VALID,4.59297,
2010-12-24, 00:29:05,VALID,997.445,VALID,0,VALID,93.8443,VALID,0,VALID,22.121,VALID,350,VALID,3.64805,
2010-12-24, 00:30:05,VALID,997.502,VALID,0,VALID,93.852,VALID,0,VALID,22.121,VALID,355,VALID,3.09336,
2010-12-24, 00:31:05,VALID,997.462,VALID,0.5,VALID,93.8367,VALID,0,VALID,22.121,VALID,8,VALID,3.72148,
2010-12-24, 00:32:05,VALID,997.446,VALID,0.5,VALID,93.8443,VALID,0,VALID,22.121,VALID,10,VALID,3.13984,
2010-12-24, 00:33:05,VALID,997.473,VALID,0,VALID,93.8367,VALID,0,VALID,22.121,VALID,4,VALID,3.85391,
2010-12-24, 00:34:05,VALID,997.426,VALID,0.5,VALID,93.8367,VALID,0,VALID,22.1405,VALID,356,VALID,1.88906,
2010-12-24, 00:35:05,VALID,997.427,VALID,0,VALID,93.8443,VALID,0,VALID,22.121,VALID,12,VALID,1.91992,
2010-12-24, 00:36:05,VALID,997.392,VALID,0.5,VALID,93.852,VALID,0,VALID,22.1015,VALID,353,VALID,2.44336,
2010-12-24, 00:37:05,VALID,997.354,VALID,0.5,VALID,93.8443,VALID,0,VALID,22.1015,VALID,7,VALID,1.80156,
2010-12-24, 00:38:05,VALID,997.283,VALID,0,VALID,93.8443,VALID,0,VALID,22.0625,VALID,18,VALID,2.3332,
2010-12-24, 00:39:05,VALID,997.244,VALID,0,VALID,93.8367,VALID,0,VALID,22.0608,VALID,22,VALID,2.9582,
2010-12-24, 00:40:05,VALID,997.263,VALID,0.5,VALID,93.8596,VALID,0,VALID,22.043,VALID,19,VALID,2.42891,
2010-12-24, 00:41:05,VALID,997.272,VALID,0,VALID,93.852,VALID,0,VALID,22.004,VALID,28,VALID,2.12461,
2010-12-24, 00:42:05,VALID,997.238,VALID,0,VALID,93.8596,VALID,0,VALID,22.004,VALID,25,VALID,2.18008,
2010-12-24, 00:43:05,VALID,997.251,VALID,0,VALID,93.8672,VALID,0,VALID,22.004,VALID,32,VALID,2.56719,
2010-12-24, 00:44:05,VALID,997.208,VALID,0,VALID,93.8825,VALID,0,VALID,22.0235,VALID,34,VALID,2.30039,
2010-12-24, 00:45:05,VALID,997.196,VALID,0,VALID,93.8672,VALID,0,VALID,22.043,VALID,29,VALID,2.34414,
2010-12-24, 00:46:05,VALID,997.158,VALID,0.5,VALID,93.8596,VALID,0,VALID,22.082,VALID,38,VALID,2.63438,
2010-12-24, 00:47:05,VALID,997.122,VALID,0,VALID,93.8596,VALID,0,VALID,22.082,VALID,43,VALID,1.97344,
2010-12-24, 00:48:05,VALID,997.121,VALID,0,VALID,93.8672,VALID,0,VALID,22.082,VALID,42,VALID,2.62266,
2010-12-24, 00:49:05,VALID,997.125,VALID,0,VALID,93.8443,VALID,0,VALID,22.082,VALID,32,VALID,1.85156,
2010-12-24, 00:50:05,VALID,997.065,VALID,0,VALID,93.8596,VALID,0,VALID,22.1015,VALID,37,VALID,1.76992,
2010-12-24, 00:51:05,VALID,997.067,VALID,0,VALID,93.8596,VALID,0,VALID,22.121,VALID,40,VALID,1.98125,
2010-12-24, 00:52:05,VALID,997.045,VALID,0.5,VALID,93.852,VALID,0,VALID,22.121,VALID,38,VALID,1.87344,
2010-12-24, 00:53:05,VALID,997.022,VALID,0,VALID,93.8596,VALID,0,VALID,22.121,VALID,36,VALID,2.09414,
2010-12-24, 00:54:05,VALID,996.978,VALID,0,VALID,93.8367,VALID,0,VALID,22.121,VALID,42,VALID,2.09258,
2010-12-24, 00:55:05,VALID,996.989,VALID,0,VALID,93.8672,VALID,0,VALID,22.121,VALID,39,VALID,1.5,
2010-12-24, 00:56:05,VALID,996.966,VALID,0,VALID,93.8443,VALID,0,VALID,22.121,VALID,29,VALID,1.54219,
2010-12-24, 00:57:05,VALID,996.924,VALID,0,VALID,93.8443,VALID,0,VALID,22.1405,VALID,32,VALID,1.57656,
2010-12-24, 00:58:05,VALID,996.951,VALID,0,VALID,93.8443,VALID,0,VALID,22.1405,VALID,27,VALID,1.40156,
2010-12-24, 00:59:05,VALID,996.908,VALID,0,VALID,93.8443,VALID,0,VALID,22.16,VALID,28,VALID,1.40508,
2010-12-24, 01:00:05,VALID,996.91,VALID,0,VALID,93.8443,VALID,0,VALID,22.16,VALID,26,VALID,1.48984,
2010-12-24, 01:01:05,VALID,996.903,VALID,0,VALID,93.852,VALID,0,VALID,22.1795,VALID,44,VALID,1.2418,
2010-12-24, 01:02:05,VALID,996.91,VALID,0.5,VALID,93.852,VALID,0,VALID,22.1795,VALID,40,VALID,1.26016,
2010-12-24, 01:03:05,VALID,996.884,VALID,0,VALID,93.8443,VALID,0,VALID,22.199,VALID,55,VALID,1.51211,
2010-12-24, 01:04:05,VALID,996.875,VALID,0,VALID,93.852,VALID,0,VALID,22.199,VALID,57,VALID,1.18906,
2010-12-24, 01:05:05,VALID,996.908,VALID,0,VALID,93.8214,VALID,0,VALID,22.2186,VALID,81,VALID,1.69062,
2010-12-24, 01:06:05,VALID,996.901,VALID,0,VALID,93.8367,VALID,0,VALID,22.2186,VALID,85,VALID,1.15742,
2010-12-24, 01:07:05,VALID,996.903,VALID,0,VALID,93.8214,VALID,0,VALID,22.2381,VALID,93,VALID,1.18867,
2010-12-24, 01:08:05,VALID,996.923,VALID,0,VALID,93.8291,VALID,0,VALID,22.2381,VALID,118,VALID,1.15469,
2010-12-24, 01:09:05,VALID,996.923,VALID,0.5,VALID,93.8214,VALID,0,VALID,22.2186,VALID,124,VALID,1.44297,
2010-12-24, 01:10:05,VALID,996.943,VALID,0,VALID,93.8214,VALID,0,VALID,22.2397,VALID,144,VALID,0.653516,
2010-12-24, 01:11:05,VALID,996.926,VALID,0,VALID,93.8291,VALID,0,VALID,22.2186,VALID,126,VALID,1.18945,
2010-12-24, 01:12:05,VALID,996.949,VALID,0,VALID,93.8291,VALID,0,VALID,22.2186,VALID,112,VALID,1.02891,
2010-12-24, 01:13:05,VALID,996.943,VALID,0,VALID,93.852,VALID,0,VALID,22.2186,VALID,103,VALID,1.10977,
2010-12-24, 01:14:05,VALID,996.94,VALID,0,VALID,93.852,VALID,0,VALID,22.199,VALID,118,VALID,0.760547,
2010-12-24, 01:15:05,VALID,996.887,VALID,0.5,VALID,93.8443,VALID,0,VALID,22.199,VALID,112,VALID,1.75039,
2010-12-24, 01:16:05,VALID,996.86,VALID,0,VALID,93.8443,VALID,0,VALID,22.2381,VALID,122,VALID,1.44766,
2010-12-24, 01:17:05,VALID,996.831,VALID,0,VALID,93.8367,VALID,0,VALID,22.2381,VALID,128,VALID,1.46094,
2010-12-24, 01:18:05,VALID,996.816,VALID,0.5,VALID,93.8367,VALID,0,VALID,22.2576,VALID,128,VALID,1.09023,
2010-12-24, 01:19:05,VALID,996.817,VALID,0,VALID,93.852,VALID,0,VALID,22.2771,VALID,120,VALID,1.09258,
2010-12-24, 01:20:05,VALID,996.81,VALID,0,VALID,93.8367,VALID,0,VALID,22.2576,VALID,115,VALID,1.04023,
2010-12-24, 01:21:05,VALID,996.762,VALID,0,VALID,93.8291,VALID,0,VALID,22.2983,VALID,113,VALID,1.69297,
2010-12-24, 01:22:05,VALID,996.767,VALID,0,VALID,93.8367,VALID,0,VALID,22.2966,VALID,123,VALID,1.27578,
2010-12-24, 01:23:05,VALID,996.772,VALID,0.5,VALID,93.8367,VALID,0,VALID,22.3161,VALID,115,VALID,1.77109,
2010-12-24, 01:24:05,VALID,996.785,VALID,0,VALID,93.8367,VALID,0,VALID,22.2983,VALID,103,VALID,1.32344,
2010-12-24, 01:25:05,VALID,996.711,VALID,0,VALID,93.8367,VALID,0,VALID,22.2966,VALID,106,VALID,1.83398,
2010-12-24, 01:26:05,VALID,996.71,VALID,0,VALID,93.8291,VALID,0,VALID,22.2966,VALID,102,VALID,1.93633,
2010-12-24, 01:27:05,VALID,996.706,VALID,0.5,VALID,93.8291,VALID,0,VALID,22.2966,VALID,99,VALID,1.38437,
2010-12-24, 01:28:05,VALID,996.718,VALID,0,VALID,93.8291,VALID,0,VALID,22.3161,VALID,96,VALID,1.55859,
2010-12-24, 01:29:05,VALID,996.674,VALID,0,VALID,93.8214,VALID,0,VALID,22.3161,VALID,99,VALID,1.70469,
2010-12-24, 01:30:05,VALID,996.668,VALID,0,VALID,93.8291,VALID,0,VALID,22.3356,VALID,97,VALID,1.48438,
2010-12-24, 01:31:05,VALID,996.643,VALID,0,VALID,93.8443,VALID,0,VALID,22.3161,VALID,97,VALID,0.853125,
2010-12-24, 01:32:05,VALID,996.616,VALID,0,VALID,93.8214,VALID,0,VALID,22.3161,VALID,104,VALID,1.39961,
2010-12-24, 01:33:05,VALID,996.632,VALID,0.5,VALID,93.8291,VALID,0,VALID,22.2949,VALID,102,VALID,0.968359,
2010-12-24, 01:34:05,VALID,996.599,VALID,0,VALID,93.8367,VALID,0,VALID,22.3161,VALID,102,VALID,0.581641,
2010-12-24, 01:35:05,VALID,996.597,VALID,0,VALID,93.8291,VALID,0,VALID,22.3161,VALID,102,VALID,0.196484,
2010-12-24, 01:36:05,VALID,996.562,VALID,0,VALID,93.852,VALID,0,VALID,22.3161,VALID,112,VALID,0.720312,
2010-12-24, 01:37:05,VALID,996.578,VALID,0,VALID,93.8443,VALID,0,VALID,22.3161,VALID,124,VALID,0.910156,
2010-12-24, 01:38:05,VALID,996.531,VALID,0,VALID,93.8214,VALID,0,VALID,22.3161,VALID,127,VALID,0.983984,
2010-12-24, 01:39:05,VALID,996.507,VALID,0.5,VALID,93.8367,VALID,0,VALID,22.3161,VALID,135,VALID,1.02109,
2010-12-24, 01:40:05,VALID,996.545,VALID,0,VALID,93.8367,VALID,0,VALID,22.3356,VALID,136,VALID,1.17266,
2010-12-24, 01:41:05,VALID,996.568,VALID,0,VALID,93.8214,VALID,0,VALID,22.2966,VALID,132,VALID,0.604297,
2010-12-24, 01:42:05,VALID,996.573,VALID,0,VALID,93.8443,VALID,0,VALID,22.2966,VALID,132,VALID,0.409375,
2010-12-24, 01:43:05,VALID,996.594,VALID,0,VALID,93.8443,VALID,0,VALID,22.2966,VALID,112,VALID,1.1207,
2010-12-24, 01:44:05,VALID,996.621,VALID,0,VALID,93.8443,VALID,0,VALID,22.3161,VALID,99,VALID,1.4043,
2010-12-24, 01:45:05,VALID,996.623,VALID,0,VALID,93.8291,VALID,0,VALID,22.3161,VALID,107,VALID,1.23477,
2010-12-24, 01:46:05,VALID,996.656,VALID,0,VALID,93.8291,VALID,0,VALID,22.3161,VALID,99,VALID,0.620703,
2010-12-24, 01:47:05,VALID,996.617,VALID,0,VALID,93.8596,VALID,0,VALID,22.3161,VALID,83,VALID,1.2875,
2010-12-24, 01:48:05,VALID,996.594,VALID,0,VALID,93.8291,VALID,0,VALID,22.3356,VALID,104,VALID,0.997656,
2010-12-24, 01:49:05,VALID,996.591,VALID,0,VALID,93.8367,VALID,0,VALID,22.3551,VALID,104,VALID,0.593359,
2010-12-24, 01:50:05,VALID,996.566,VALID,0,VALID,93.852,VALID,0,VALID,22.3551,VALID,104,VALID,0.140234,
2010-12-24, 01:51:05,VALID,996.589,VALID,0,VALID,93.8367,VALID,0,VALID,22.3551,VALID,105,VALID,0.0351563,
2010-12-24, 01:52:05,VALID,996.579,VALID,0,VALID,93.8214,VALID,0,VALID,22.3339,VALID,105,VALID,0,
2010-12-24, 01:53:05,VALID,996.526,VALID,0.5,VALID,93.8214,VALID,0,VALID,22.3746,VALID,105,VALID,0,
2010-12-24, 01:54:05,VALID,996.534,VALID,0,VALID,93.8443,VALID,0,VALID,22.3763,VALID,40,VALID,0.884375,
2010-12-24, 01:55:05,VALID,996.532,VALID,0,VALID,93.8443,VALID,0,VALID,22.3551,VALID,6,VALID,0.929297,
2010-12-24, 01:56:05,VALID,996.548,VALID,0,VALID,93.8214,VALID,0,VALID,22.3551,VALID,5,VALID,0.777344,
2010-12-24, 01:57:05,VALID,996.519,VALID,0,VALID,93.8291,VALID,0,VALID,22.3551,VALID,61,VALID,1.41406,
2010-12-24, 01:58:05,VALID,996.509,VALID,0,VALID,93.8367,VALID,0,VALID,22.3551,VALID,40,VALID,0.523438,
2010-12-24, 01:59:05,VALID,996.481,VALID,0,VALID,93.8443,VALID,0,VALID,22.3551,VALID,356,VALID,0.565234,
2010-12-24, 02:00:05,VALID,996.422,VALID,0,VALID,93.8443,VALID,0,VALID,22.3551,VALID,356,VALID,0.00117188,
2010-12-24, 02:01:05,VALID,996.382,VALID,0,VALID,93.8367,VALID,0,VALID,22.3356,VALID,26,VALID,0.426953,
2010-12-24, 02:02:05,VALID,996.36,VALID,0,VALID,93.8367,VALID,0,VALID,22.3551,VALID,111,VALID,0.942187,
2010-12-24, 02:03:05,VALID,996.33,VALID,0,VALID,93.8443,VALID,0,VALID,22.3551,VALID,121,VALID,1.41719,
2010-12-24, 02:04:05,VALID,996.296,VALID,0,VALID,93.8443,VALID,0,VALID,22.3746,VALID,118,VALID,1.91992,
2010-12-24, 02:05:05,VALID,996.311,VALID,0,VALID,93.8443,VALID,0,VALID,22.3941,VALID,118,VALID,1.95469,
2010-12-24, 02:06:05,VALID,996.296,VALID,0,VALID,93.8443,VALID,0,VALID,22.3941,VALID,116,VALID,1.98125,
2010-12-24, 02:07:05,VALID,996.309,VALID,0,VALID,93.8291,VALID,0,VALID,22.3941,VALID,113,VALID,1.66562,
2010-12-24, 02:08:05,VALID,996.281,VALID,0,VALID,93.8367,VALID,0,VALID,22.4136,VALID,114,VALID,1.69766,
2010-12-24, 02:09:05,VALID,996.27,VALID,0,VALID,93.852,VALID,0,VALID,22.4136,VALID,114,VALID,0.829687,
2010-12-24, 02:10:05,VALID,996.31,VALID,0,VALID,93.8062,VALID,0,VALID,22.4331,VALID,114,VALID,1.0668,
2010-12-24, 02:11:05,VALID,996.263,VALID,0,VALID,93.8443,VALID,0,VALID,22.4526,VALID,110,VALID,1.58008,
2010-12-24, 02:12:05,VALID,996.262,VALID,0,VALID,93.8138,VALID,0,VALID,22.4526,VALID,104,VALID,1.75664,
2010-12-24, 02:13:05,VALID,996.272,VALID,0,VALID,93.8291,VALID,0,VALID,22.4721,VALID,91,VALID,1.62656,
2010-12-24, 02:14:05,VALID,996.288,VALID,0,VALID,93.8214,VALID,0,VALID,22.4916,VALID,96,VALID,1.27227,
2010-12-24, 02:15:05,VALID,996.324,VALID,0,VALID,93.8214,VALID,0,VALID,22.4916,VALID,105,VALID,1.29805,
2010-12-24, 02:16:05,VALID,996.326,VALID,0,VALID,93.8138,VALID,0,VALID,22.4916,VALID,138,VALID,0.853125,
2010-12-24, 02:17:05,VALID,996.339,VALID,0,VALID,93.8214,VALID,0,VALID,22.5128,VALID,164,VALID,0.233203,
2010-12-24, 02:18:05,VALID,996.335,VALID,0,VALID,93.8138,VALID,0,VALID,22.4916,VALID,121,VALID,0.373047,
2010-12-24, 02:19:05,VALID,996.366,VALID,0,VALID,93.8291,VALID,0,VALID,22.4721,VALID,121,VALID,0.261328,
2010-12-24, 02:20:05,VALID,996.293,VALID,0,VALID,93.8214,VALID,0,VALID,22.4916,VALID,107,VALID,0.5375,
2010-12-24, 02:21:05,VALID,996.32,VALID,0,VALID,93.8367,VALID,0,VALID,22.5128,VALID,104,VALID,0.499219,
2010-12-24, 02:22:05,VALID,996.343,VALID,0,VALID,93.8138,VALID,0,VALID,22.4916,VALID,104,VALID,0.35,
2010-12-24, 02:23:05,VALID,996.349,VALID,0,VALID,93.8138,VALID,0,VALID,22.5128,VALID,85,VALID,0.268359,
2010-12-24, 02:24:05,VALID,996.368,VALID,0,VALID,93.8291,VALID,0,VALID,22.4933,VALID,85,VALID,0.573828,
2010-12-24, 02:25:05,VALID,996.411,VALID,0,VALID,93.8291,VALID,0,VALID,22.4916,VALID,67,VALID,0.478906,
2010-12-24, 02:26:05,VALID,996.42,VALID,0,VALID,93.8214,VALID,0,VALID,22.4916,VALID,334,VALID,0.8,
2010-12-24, 02:27:05,VALID,996.43,VALID,0,VALID,93.8291,VALID,0,VALID,22.4916,VALID,325,VALID,0.500391,
2010-12-24, 02:28:05,VALID,996.399,VALID,0,VALID,93.8367,VALID,0,VALID,22.4916,VALID,325,VALID,0.303516,
2010-12-24, 02:29:05,VALID,996.409,VALID,0,VALID,93.8214,VALID,0,VALID,22.4916,VALID,325,VALID,0.333203,
2010-12-24, 02:30:05,VALID,996.39,VALID,0,VALID,93.8214,VALID,0,VALID,22.5111,VALID,325,VALID,0.193359,
2010-12-24, 02:31:05,VALID,996.393,VALID,0,VALID,93.8138,VALID,0,VALID,22.4916,VALID,325,VALID,0.273047,
2010-12-24, 02:32:05,VALID,996.404,VALID,0,VALID,93.8367,VALID,0,VALID,22.5111,VALID,332,VALID,0.491797,
2010-12-24, 02:33:05,VALID,996.375,VALID,0,VALID,93.8138,VALID,0,VALID,22.5111,VALID,61,VALID,0.837109,
2010-12-24, 02:34:05,VALID,996.352,VALID,0,VALID,93.8062,VALID,0,VALID,22.5111,VALID,26,VALID,0.882813,
2010-12-24, 02:35:05,VALID,996.345,VALID,0,VALID,93.8214,VALID,0,VALID,22.4899,VALID,25,VALID,0.723437,
2010-12-24, 02:36:05,VALID,996.344,VALID,0,VALID,93.8214,VALID,0,VALID,22.5306,VALID,23,VALID,0.439453,
2010-12-24, 02:37:05,VALID,996.324,VALID,0,VALID,93.8291,VALID,0,VALID,22.5306,VALID,23,VALID,0.249219,
2010-12-24, 02:38:04,VALID,996.33,VALID,0,VALID,93.8214,VALID,0,VALID,22.5306,VALID,23,VALID,0.409375,
2010-12-24, 02:39:04,VALID,996.326,VALID,0,VALID,93.8367,VALID,0,VALID,22.5289,VALID,23,VALID,1.08828,
2010-12-24, 02:40:04,VALID,996.323,VALID,0,VALID,93.8214,VALID,0,VALID,22.5501,VALID,31,VALID,1.59531,
2010-12-24, 02:41:04,VALID,996.276,VALID,0,VALID,93.8214,VALID,0,VALID,22.5892,VALID,44,VALID,2.42969,
2010-12-24, 02:42:04,VALID,996.247,VALID,0,VALID,93.8062,VALID,0,VALID,22.6087,VALID,53,VALID,2.41172,
2010-12-24, 02:43:04,VALID,996.248,VALID,0,VALID,93.8214,VALID,0,VALID,22.6282,VALID,48,VALID,1.94102,
2010-12-24, 02:44:04,VALID,996.218,VALID,0,VALID,93.8062,VALID,0,VALID,22.6282,VALID,61,VALID,1.54141,
2010-12-24, 02:45:04,VALID,996.225,VALID,0,VALID,93.8138,VALID,0,VALID,22.6282,VALID,71,VALID,1.29727,
2010-12-24, 02:46:04,VALID,996.219,VALID,0,VALID,93.8214,VALID,0,VALID,22.6087,VALID,75,VALID,1.44609,
2010-12-24, 02:47:04,VALID,996.196,VALID,0,VALID,93.8138,VALID,0,VALID,22.6282,VALID,74,VALID,1.22344,
2010-12-24, 02:48:04,VALID,996.156,VALID,0,VALID,93.7985,VALID,0,VALID,22.6087,VALID,73,VALID,0.995313,
2010-12-24, 02:49:04,VALID,996.209,VALID,0,VALID,93.8062,VALID,0,VALID,22.6087,VALID,75,VALID,1.2582,
2010-12-24, 02:50:04,VALID,996.177,VALID,0,VALID,93.8138,VALID,0,VALID,22.6087,VALID,62,VALID,1.0457,
2010-12-24, 02:51:04,VALID,996.191,VALID,0.5,VALID,93.8367,VALID,0,VALID,22.5874,VALID,61,VALID,0.517578,
2010-12-24, 02:52:04,VALID,996.161,VALID,0,VALID,93.8291,VALID,0,VALID,22.6087,VALID,62,VALID,0.702344,
2010-12-24, 02:53:04,VALID,996.111,VALID,0,VALID,93.8062,VALID,0,VALID,22.6069,VALID,102,VALID,0.849219,
2010-12-24, 02:54:04,VALID,996.091,VALID,0,VALID,93.7985,VALID,0,VALID,22.6069,VALID,120,VALID,0.720312,
2010-12-24, 02:55:04,VALID,996.098,VALID,0,VALID,93.8062,VALID,0,VALID,22.6477,VALID,122,VALID,0.644922,
2010-12-24, 02:56:04,VALID,996.052,VALID,0,VALID,93.8138,VALID,0,VALID,22.6477,VALID,140,VALID,0.779297,
2010-12-24, 02:57:04,VALID,996.045,VALID,0,VALID,93.8062,VALID,0,VALID,22.6477,VALID,152,VALID,0.804688,
2010-12-24, 02:58:04,VALID,995.984,VALID,0,VALID,93.7985,VALID,0,VALID,22.6477,VALID,152,VALID,0.534375,
2010-12-24, 02:59:04,VALID,995.977,VALID,0,VALID,93.8214,VALID,0,VALID,22.6672,VALID,152,VALID,0.641016,
2010-12-24, 03:00:04,VALID,995.999,VALID,0,VALID,93.7909,VALID,0,VALID,22.7062,VALID,169,VALID,0.748047,
2010-12-24, 03:01:04,VALID,995.973,VALID,0,VALID,93.7909,VALID,0,VALID,22.7257,VALID,169,VALID,0.58125,
2010-12-24, 03:02:04,VALID,996.005,VALID,0,VALID,93.7833,VALID,0,VALID,22.724,VALID,169,VALID,0.339844,
2010-12-24, 03:03:04,VALID,995.996,VALID,0,VALID,93.7985,VALID,0,VALID,22.7257,VALID,169,VALID,0.525,
2010-12-24, 03:04:04,VALID,996.004,VALID,0,VALID,93.7985,VALID,0,VALID,22.7257,VALID,152,VALID,0.891406,
2010-12-24, 03:05:04,VALID,996.051,VALID,0,VALID,93.8062,VALID,0,VALID,22.7257,VALID,137,VALID,0.648828,
2010-12-24, 03:06:04,VALID,996.045,VALID,0,VALID,93.7909,VALID,0,VALID,22.7452,VALID,137,VALID,0.526563,
2010-12-24, 03:07:04,VALID,996.016,VALID,0,VALID,93.7833,VALID,0,VALID,22.7435,VALID,137,VALID,0.327734,
2010-12-24, 03:08:04,VALID,996.101,VALID,0,VALID,93.7985,VALID,0,VALID,22.7452,VALID,137,VALID,0.164844,
2010-12-24, 03:09:04,VALID,996.129,VALID,0,VALID,93.7909,VALID,0,VALID,22.7452,VALID,137,VALID,0,
2010-12-24, 03:10:04,VALID,996.118,VALID,0.5,VALID,93.7909,VALID,0,VALID,22.7452,VALID,137,VALID,0.0273438,
2010-12-24, 03:11:04,VALID,996.155,VALID,0,VALID,93.8062,VALID,0,VALID,22.7647,VALID,66,VALID,0.614844,
2010-12-24, 03:12:04,VALID,996.164,VALID,0,VALID,93.8062,VALID,0,VALID,22.7647,VALID,60,VALID,0.491797,
2010-12-24, 03:13:04,VALID,996.16,VALID,0,VALID,93.7985,VALID,0,VALID,22.7452,VALID,60,VALID,0.505078,
2010-12-24, 03:14:04,VALID,996.151,VALID,0,VALID,93.7985,VALID,0,VALID,22.7647,VALID,60,VALID,0.137891,
2010-12-24, 03:15:04,VALID,996.144,VALID,0,VALID,93.8138,VALID,0,VALID,22.7452,VALID,60,VALID,0,
2010-12-24, 03:16:04,VALID,996.131,VALID,0,VALID,93.8062,VALID,0,VALID,22.7435,VALID,60,VALID,0.531641,
2010-12-24, 03:17:04,VALID,996.112,VALID,0,VALID,93.7985,VALID,0,VALID,22.7452,VALID,60,VALID,0.48125,
2010-12-24, 03:18:04,VALID,996.14,VALID,0,VALID,93.8062,VALID,0,VALID,22.7647,VALID,60,VALID,0.39375,
2010-12-24, 03:19:04,VALID,996.136,VALID,0,VALID,93.7985,VALID,0,VALID,22.7647,VALID,60,VALID,0.401172,
2010-12-24, 03:20:04,VALID,996.127,VALID,0,VALID,93.8138,VALID,0,VALID,22.7435,VALID,60,VALID,0.351953,
2010-12-24, 03:21:04,VALID,996.18,VALID,0,VALID,93.7909,VALID,0,VALID,22.7647,VALID,60,VALID,0.219141,
2010-12-24, 03:22:04,VALID,996.181,VALID,0,VALID,93.8062,VALID,0,VALID,22.7647,VALID,60,VALID,0,
2010-12-24, 03:23:04,VALID,996.181,VALID,0,VALID,93.8062,VALID,0,VALID,22.7842,VALID,60,VALID,0,
2010-12-24, 03:24:04,VALID,996.226,VALID,0,VALID,93.7909,VALID,0,VALID,22.7842,VALID,60,VALID,0.2,
2010-12-24, 03:25:04,VALID,996.221,VALID,0,VALID,93.7985,VALID,0,VALID,22.7842,VALID,60,VALID,0.526953,
2010-12-24, 03:26:04,VALID,996.261,VALID,0,VALID,93.7909,VALID,0,VALID,22.7842,VALID,60,VALID,0.633203,
2010-12-24, 03:27:04,VALID,996.252,VALID,0,VALID,93.7909,VALID,0,VALID,22.7647,VALID,60,VALID,0.411719,
2010-12-24, 03:28:04,VALID,996.233,VALID,0,VALID,93.7985,VALID,0,VALID,22.7647,VALID,60,VALID,0.214453,
2010-12-24, 03:29:04,VALID,996.236,VALID,0,VALID,93.7985,VALID,0,VALID,22.7452,VALID,60,VALID,0.547656,
2010-12-24, 03:30:04,VALID,996.222,VALID,0.5,VALID,93.7909,VALID,0,VALID,22.7452,VALID,17,VALID,0.683984,
2010-12-24, 03:31:04,VALID,996.185,VALID,0,VALID,93.8062,VALID,0,VALID,22.7257,VALID,17,VALID,0.322266,
2010-12-24, 03:32:04,VALID,996.13,VALID,0,VALID,93.7985,VALID,0,VALID,22.7452,VALID,17,VALID,0.577344,
2010-12-24, 03:33:04,VALID,996.13,VALID,0,VALID,93.8062,VALID,0,VALID,22.7647,VALID,64,VALID,0.891016,
2010-12-24, 03:34:04,VALID,996.091,VALID,0,VALID,93.8062,VALID,0,VALID,22.7647,VALID,80,VALID,1.31953,
2010-12-24, 03:35:04,VALID,996.056,VALID,0,VALID,93.8062,VALID,0,VALID,22.7842,VALID,88,VALID,1.33711,
2010-12-24, 03:36:04,VALID,996.06,VALID,0,VALID,93.7985,VALID,0,VALID,22.7842,VALID,93,VALID,1.02031,
2010-12-24, 03:37:04,VALID,996.033,VALID,0,VALID,93.7985,VALID,0,VALID,22.7842,VALID,100,VALID,0.660547,
2010-12-24, 03:38:04,VALID,996.053,VALID,0,VALID,93.7985,VALID,0,VALID,22.8037,VALID,137,VALID,0.706641,
2010-12-24, 03:39:04,VALID,996.038,VALID,0,VALID,93.7757,VALID,0,VALID,22.825,VALID,125,VALID,0.642187,
2010-12-24, 03:40:04,VALID,996.062,VALID,0,VALID,93.8062,VALID,0,VALID,22.8037,VALID,124,VALID,0.374609,
2010-12-24, 03:41:04,VALID,996.035,VALID,0,VALID,93.7833,VALID,0,VALID,22.825,VALID,125,VALID,0.35625,
2010-12-24, 03:42:04,VALID,996.019,VALID,0,VALID,93.7833,VALID,0,VALID,22.8232,VALID,125,VALID,0.705078,
2010-12-24, 03:43:04,VALID,996.011,VALID,0,VALID,93.7985,VALID,0,VALID,22.8427,VALID,121,VALID,1.37969,
2010-12-24, 03:44:04,VALID,996.006,VALID,0,VALID,93.7833,VALID,0,VALID,22.8623,VALID,108,VALID,0.936328,
2010-12-24, 03:45:04,VALID,996.042,VALID,0,VALID,93.7833,VALID,0,VALID,22.8623,VALID,119,VALID,1.12266,
2010-12-24, 03:46:04,VALID,996.033,VALID,0,VALID,93.7757,VALID,0,VALID,22.8623,VALID,111,VALID,1.08945,